This is the latest recevied weather packets stored in our database for station/object WE1C. If no packets are shown the sender has not sent any weather packets the latest 10 day(s).
| Time | Temp. | Humidity | Pressure | Rain* | Wind** | Luminosity | Snow |
|---|---|---|---|---|---|---|---|
| 1788534432 | 25° C | 72% | 1039.2 hPa | 0 mm | - | 460 W/m² | - |
| 1788534127 | 24.44° C | 72% | 1039.4 hPa | 0 mm | - | 705 W/m² | - |
| 1788533825 | 24.44° C | 72% | 1039.1 hPa | 0 mm | - | 760 W/m² | - |
| 1788533521 | 25° C | 73% | 1039.3 hPa | 0 mm | - | 723 W/m² | - |
| 1788533216 | 24.44° C | 72% | 1039.1 hPa | 0 mm | - | 718 W/m² | - |
| 1788532912 | 24.44° C | 79% | 1039.4 hPa | 0 mm | - | 693 W/m² | - |
| 1788532607 | 23.89° C | 75% | 1039.2 hPa | 0 mm | - | 711 W/m² | - |
| 1788532304 | 23.89° C | 82% | 1039.3 hPa | 0 mm | - | 694 W/m² | - |
| 1788532000 | 23.89° C | 78% | 1039.4 hPa | 0 mm | - | 688 W/m² | - |
| 1788531696 | 23.33° C | 80% | 1039.5 hPa | 0 mm | - | 656 W/m² | - |
| 1788531390 | 23.33° C | 82% | 1039.3 hPa | 0 mm | - | 643 W/m² | - |
| 1788531086 | 23.33° C | 82% | 1039.5 hPa | 0 mm | - | 635 W/m² | - |
| 1788530781 | 23.33° C | 80% | 1039.5 hPa | 0 mm | - | 609 W/m² | - |
| 1788530475 | 23.33° C | 79% | 1039.6 hPa | 0 mm | - | 583 W/m² | - |
| 1788530175 | 23.33° C | 79% | 1039.3 hPa | 0 mm | - | 543 W/m² | - |
| 1788529872 | 23.33° C | 82% | 1039.6 hPa | 0 mm | - | 553 W/m² | - |
| 1788529567 | 22.78° C | 85% | 1039.5 hPa | 0 mm | - | 522 W/m² | - |
| 1788529266 | 22.78° C | 87% | 1039.3 hPa | 0 mm | - | 508 W/m² | - |
| 1788528961 | 22.22° C | 84% | 1039.5 hPa | 0 mm | - | 504 W/m² | - |
| 1788528657 | 22.22° C | 85% | 1039.5 hPa | 0 mm | - | 523 W/m² | - |
| 1788528356 | 21.67° C | 84% | 1039.4 hPa | 0 mm | - | 433 W/m² | - |
| 1788528051 | 22.22° C | 86% | 1039.6 hPa | 0 mm | - | 335 W/m² | - |
| 1788527754 | 21.67° C | 89% | 1039.5 hPa | 0 mm | - | 495 W/m² | - |
| 1788527447 | 21.11° C | 94% | 1039.5 hPa | 0 mm | - | 520 W/m² | - |
| 1788527146 | 20° C | 97% | 1039.4 hPa | 0 mm | - | 553 W/m² | - |
* Rain latest hour (hover to see other rain measurements)
** Current wind speed in m/s (hover to see current wind gust speed)